[[{"header":{"parameterUnit":"m.s-1","parameterCategory":1,"la1":30.2991,"la2":30.254,"lo1":-89.0895,"lo2":-89.0444,"dy":0.0017,"dx":0.0017,"nx":28,"ny":28,"refTime":"2026-01-10T09:00:00:Z","depth":0,"parameterNumber":2,"parameterNumberName":"U-component_of_WINDS"},"data":[0,0,0,0,0,0,0,0,0,0,0,0,0,0,0,0,0,0,0,0,0,0,0,0,0,0,0,0,0,0,0,0,0,0,0,0,0,0,0,0,0,0,0,0,0,0,0,0,0,0,0,0,0,0,0,0,0,0,0.2574,0.2574,0,0.2568,0.2568,0.2568,0.2577,0.2578,0.2578,0.2578,0.257,0.257,0.2569,0,0,0,0,0,0,0,0,0,0,0,0,0,0.2593,0.2592,0.2574,0.2574,0.2574,0.2568,0.2568,0.2568,0.2577,0.2578,0.2578,0.2578,0.2571,0.257,0.2569,0,0,0,0,0,0,0,0,0,0,0,0,0,0.2585,0.2592,0.2574,0.2578,0.2578,0.2568,0.2568,0.2568,0.2577,0.2578,0.2578,0.2579,0.2571,0.257,0.2569,0.2555,0,0,0.2567,0.2567,0,0,0,0,0,0,0,0,0.2586,0.2585,0.2577,0.2578,0.2578,0.2574,0.2572,0.2564,0.2577,0.2578,0.2578,0.2579,0.2571,0.257,0.2568,0.2555,0.2554,0.2567,0.2567,0.2566,0.2566,0,0,0,0,0,0,0,0.2586,0.2585,0.2572,0.2577,0.2578,0.258,0.2579,0.257,0.2572,0.2578,0.2578,0.2577,0.2571,0.2569,0.2568,0.2554,0.2567,0.2566,0.2566,0.2566,0.253,0.253,0,0,0,0,0,0,0.2587,0.2585,0.2572,0.2572,0.2583,0.2579,0.2578,0.2575,0.2572,0.2572,0.2577,0.2578,0.257,0.2569,0.2568,0.2552,0.2566,0.2565,0.2565,0.2531,0.253,0.2529,0,0,0,0,0,0,0.2587,0.2585,0.2572,0.2579,0.2577,0.2578,0.2574,0.2574,0.2572,0.2571,0.2572,0.2574,0.257,0.2569,0.2559,0.2551,0.2565,0.2564,0.2531,0.253,0.253,0.2518,0,0,0,0,0,0,0.2587,0.2585,0.258,0.2579,0.2577,0.2563,0.2574,0.2574,0.2571,0.2572,0.2569,0.2569,0.2571,0.256,0.2558,0.2551,0.2564,0.2532,0.2531,0.253,0.2519,0.2517,0.2516,0,0,0,0,0,0.2588,0.2576,0.258,0.2578,0.257,0.2563,0.2562,0.2564,0.257,0.2565,0.2565,0.2569,0.2553,0.2559,0.2557,0.2549,0.2532,0.2531,0.253,0.252,0.2518,0.2516,0,0,0,0,0,0,0.2576,0.2576,0.258,0.2567,0.2565,0.2564,0.2557,0.2562,0.2557,0.2558,0.2561,0.256,0.255,0.2548,0.2555,0.2536,0.2543,0.2542,0.2537,0.2534,0.2532,0.2533,0.2563,0,0,0,0,0,0.2572,0.2566,0.2567,0.2556,0.2554,0.2556,0.2553,0.2556,0.2553,0.2552,0.2551,0.2548,0.2542,0.2538,0.2533,0.252,0.2519,0.2514,0.2512,0.251,0.2509,0.2502,0.25,0.2526,0.2526,0.2526,0,0,0.2563,0.2563,0.2558,0.2553,0.2552,0.2546,0.2555,0.2548,0.2543,0.255,0.2541,0.254,0.2537,0.2526,0.2521,0.2524,0.2502,0.2509,0.2508,0.2507,0.2501,0.2498,0.2496,0.2525,0.2525,0.2525,0,0,0.2544,0.2543,0.2534,0.2533,0.2531,0.2533,0.2531,0.253,0.253,0.2521,0.2526,0.2521,0.2511,0.2509,0.2506,0.2489,0.2492,0.2487,0.2477,0.247,0.2468,0.2466,0.246,0.2458,0.2485,0.2485,0.2485,0,0.2533,0.2524,0.2529,0.2522,0.2519,0.2527,0.2518,0.2516,0.2513,0.2511,0.2515,0.2504,0.2502,0.2491,0.2487,0.2485,0.2482,0.2487,0.2468,0.2467,0.2465,0.2459,0.2457,0.2485,0.2485,0.2485,0.2485,0,0.2511,0.2505,0.2498,0.2496,0.2493,0.2484,0.2488,0.2484,0.2488,0.2489,0.248,0.2479,0.2474,0.2471,0.2474,0.246,0.2463,0.2468,0.2476,0.2462,0.2456,0.2454,0.2484,0.2484,0.2484,0.2484,0,0,0.2482,0.2484,0.2481,0.248,0.248,0.2475,0.2468,0.2464,0.2461,0.2459,0.2453,0.2445,0.245,0.2448,0.245,0.2445,0.2432,0.2451,0.2451,0.2447,0.2417,0.2413,0.241,0.2435,0.2434,0.2434,0.2417,0,0.2464,0.2451,0.2456,0.2444,0.2439,0.2447,0.244,0.2439,0.2441,0.2436,0.2438,0.2433,0.244,0.2438,0.2433,0.2434,0.2426,0.2436,0.2429,0.2429,0.2429,0.2407,0.2403,0.2387,0.2415,0.2415,0.2415,0,0.2439,0.2437,0.2425,0.2426,0.2424,0.2418,0.2416,0.2412,0.2411,0.2413,0.2411,0.2415,0.2408,0.2417,0.2408,0.2415,0.2412,0.2413,0.2412,0.2411,0.242,0.2405,0.2382,0.238,0.2411,0.2412,0.2412,0,0.242,0.2414,0.2406,0.2405,0.2406,0.2402,0.2403,0.2403,0.24,0.2398,0.2397,0.2394,0.2392,0.2389,0.2393,0.2399,0.2383,0.2392,0.2384,0.2384,0.238,0.238,0.2355,0.2379,0.2379,0.2379,0.2379,0,0.2398,0.239,0.2397,0.2392,0.2383,0.2389,0.238,0.2382,0.2382,0.2377,0.2384,0.238,0.2385,0.2381,0.2384,0.2376,0.2375,0.2376,0.2377,0.2375,0.2375,0.2373,0.2374,0.2379,0.2379,0.2379,0.2379,0,0.2374,0.2378,0.237,0.2373,0.2374,0.2367,0.237,0.2365,0.2368,0.2362,0.2361,0.2365,0.2361,0.2364,0.236,0.2362,0.2352,0.2354,0.2352,0.2352,0.2344,0.2345,0.2317,0.2314,0.234,0.234,0.234,0,0.2359,0.2353,0.2356,0.2354,0.2354,0.235,0.2349,0.2355,0.2352,0.2352,0.2348,0.2345,0.2342,0.2335,0.2338,0.2335,0.2337,0.2328,0.2336,0.2335,0.2337,0.2337,0.2336,0.2325,0.2325,0.2325,0.2325,0,0.2333,0.2336,0.2333,0.2332,0.233,0.2329,0.2328,0.2326,0.2332,0.233,0.2326,0.2324,0.2321,0.2318,0.2316,0.2316,0.2321,0.2322,0.232,0.2318,0.2317,0.2317,0.2347,0.2322,0.2323,0.2323,0.2323,0.2323,0.2313,0.2308,0.231,0.2307,0.2308,0.2308,0.2304,0.2307,0.2304,0.2302,0.2306,0.2302,0.2302,0.2301,0.2301,0.2297,0.2301,0.2298,0.2297,0.2297,0.2295,0.2318,0.2297,0.2297,0.2297,0.2297,0.2297,0,0.2287,0.2289,0.2286,0.2286,0.2284,0.229,0.2291,0.2288,0.2285,0.2285,0.2283,0.228,0.2277,0.228,0.2278,0.2275,0.2277,0.2274,0.2274,0.2274,0.2292,0.2294,0.2272,0.2272,0.2272,0.2272,0.2272,0.2272,0.2273,0.2266,0.2269,0.2263,0.2265,0.2261,0.2261,0.2261,0.2262,0.2258,0.2256,0.2258,0.226,0.2258,0.2256,0.2257,0.2256,0.2252,0.2254,0.227,0.2273,0.2275,0.2277,0.2252,0.2252,0.2236,0.2236,0.2236]},{"header":{"parameterUnit":"m.s-1","parameterCategory":1,"la1":30.2991,"la2":30.254,"lo1":-89.0895,"lo2":-89.0444,"dy":0.0017,"dx":0.0017,"nx":28,"ny":28,"refTime":"2026-01-10T09:00:00:Z","depth":0,"parameterNumber":3,"parameterNumberName":"V-component_of_WINDS"},"data":[0,0,0,0,0,0,0,0,0,0,0,0,0,0,0,0,0,0,0,0,0,0,0,0,0,0,0,0,0,0,0,0,0,0,0,0,0,0,0,0,0,0,0,0,0,0,0,0,0,0,0,0,0,0,0,0,0,0,-7.5617,-7.5618,0,-7.5705,-7.5706,-7.5707,-7.5665,-7.5662,-7.566,-7.5658,-7.5742,-7.5746,-7.5751,0,0,0,0,0,0,0,0,0,0,0,0,0,-7.5405,-7.541,-7.5617,-7.5618,-7.5619,-7.5705,-7.5706,-7.5707,-7.5665,-7.5662,-7.5659,-7.5657,-7.5741,-7.5746,-7.5751,0,0,0,0,0,0,0,0,0,0,0,0,0,-7.5496,-7.5411,-7.5616,-7.5608,-7.5608,-7.5705,-7.5706,-7.5708,-7.5666,-7.5662,-7.5659,-7.5656,-7.5739,-7.5745,-7.5752,-7.586,0,0,-7.5772,-7.5775,0,0,0,0,0,0,0,0,-7.5491,-7.5504,-7.5608,-7.5609,-7.5609,-7.5671,-7.5663,-7.5758,-7.5666,-7.5644,-7.5658,-7.5654,-7.5721,-7.5728,-7.5752,-7.5864,-7.5867,-7.5772,-7.5776,-7.5779,-7.5781,0,0,0,0,0,0,0,-7.5485,-7.5499,-7.5651,-7.561,-7.561,-7.5598,-7.5607,-7.5681,-7.57,-7.5645,-7.5642,-7.5654,-7.572,-7.5746,-7.5754,-7.5868,-7.5772,-7.5778,-7.5782,-7.5784,-7.6074,-7.6078,0,0,0,0,0,0,-7.5479,-7.5495,-7.5649,-7.5654,-7.5541,-7.5605,-7.5615,-7.5654,-7.5699,-7.5703,-7.5657,-7.5652,-7.5737,-7.5746,-7.5757,-7.5887,-7.5779,-7.5785,-7.5789,-7.607,-7.6075,-7.6079,0,0,0,0,0,0,-7.5475,-7.5494,-7.5645,-7.5574,-7.5592,-7.5612,-7.5656,-7.5658,-7.5684,-7.5708,-7.571,-7.568,-7.5734,-7.5748,-7.5835,-7.5889,-7.5788,-7.5794,-7.6066,-7.6072,-7.6077,-7.6148,0,0,0,0,0,0,-7.5469,-7.5492,-7.5534,-7.5575,-7.5596,-7.5724,-7.566,-7.5662,-7.5696,-7.569,-7.573,-7.5733,-7.5733,-7.5826,-7.5842,-7.5896,-7.5799,-7.6061,-7.6068,-7.6075,-7.6141,-7.6155,-7.6168,0,0,0,0,0,-7.5462,-7.5549,-7.5537,-7.5556,-7.565,-7.5727,-7.5739,-7.5738,-7.57,-7.5742,-7.5758,-7.5732,-7.5881,-7.5835,-7.5853,-7.591,-7.6058,-7.6066,-7.6075,-7.6135,-7.6152,-7.6167,0,0,0,0,0,0,-7.5511,-7.5554,-7.5541,-7.5644,-7.5683,-7.572,-7.5772,-7.5756,-7.5804,-7.5797,-7.5792,-7.5801,-7.5892,-7.591,-7.5858,-7.6018,-7.5963,-7.5976,-7.6003,-7.602,-7.6033,-7.6027,-7.5804,0,0,0,0,0,-7.5535,-7.5596,-7.5629,-7.5717,-7.5737,-7.5752,-7.5785,-7.5782,-7.582,-7.5836,-7.5857,-7.5894,-7.5949,-7.5985,-7.6037,-7.6143,-7.6151,-7.6192,-7.6205,-7.6216,-7.6227,-7.6285,-7.6303,-7.6107,-7.6107,-7.6107,0,0,-7.5582,-7.5613,-7.5652,-7.5728,-7.5757,-7.5819,-7.5765,-7.5833,-7.5879,-7.5845,-7.593,-7.5948,-7.5988,-7.6086,-7.613,-7.6103,-7.6283,-7.6227,-7.6235,-7.624,-7.6296,-7.6314,-7.6331,-7.6113,-7.6112,-7.6111,0,0,-7.5702,-7.5732,-7.5809,-7.584,-7.5887,-7.5896,-7.5915,-7.5955,-7.5967,-7.6053,-7.6029,-7.6082,-7.6177,-7.6208,-7.6236,-7.637,-7.6348,-7.6387,-7.6457,-7.6514,-7.6529,-7.6543,-7.6591,-7.6608,-7.6397,-7.6397,-7.6397,0,-7.5755,-7.585,-7.585,-7.5921,-7.5955,-7.5931,-7.6009,-7.6038,-7.6098,-7.6121,-7.6091,-7.6212,-7.6237,-7.6342,-7.6375,-7.6398,-7.6419,-7.6382,-7.6527,-7.6541,-7.6554,-7.66,-7.6618,-7.6402,-7.6401,-7.6401,-7.64,0,-7.5913,-7.5979,-7.6036,-7.6098,-7.6138,-7.6212,-7.6223,-7.6263,-7.6257,-7.6269,-7.6357,-7.6388,-7.6446,-7.6471,-7.6463,-7.6575,-7.6558,-7.6528,-7.6473,-7.6577,-7.662,-7.6638,-7.6408,-7.6407,-7.6405,-7.6404,0,0,-7.6064,-7.6128,-7.6149,-7.6177,-7.6228,-7.6278,-7.6351,-7.6411,-7.6446,-7.6488,-7.6549,-7.6631,-7.6605,-7.6636,-7.6632,-7.6683,-7.6788,-7.6646,-7.6647,-7.6672,-7.6914,-7.6936,-7.6957,-7.6774,-7.6778,-7.678,-7.6911,0,-7.6187,-7.6318,-7.6321,-7.644,-7.6501,-7.648,-7.6543,-7.658,-7.6595,-7.6647,-7.6661,-7.6721,-7.668,-7.67,-7.6749,-7.6765,-7.6836,-7.6755,-7.6829,-7.6832,-7.682,-7.6979,-7.7003,-7.7124,-7.6927,-7.693,-7.6932,0,-7.6348,-7.64,-7.6526,-7.6569,-7.6595,-7.6652,-7.6709,-7.676,-7.6801,-7.6808,-7.6845,-7.6835,-7.6908,-7.6852,-7.6952,-7.6897,-7.6928,-7.694,-7.6945,-7.6952,-7.6888,-7.699,-7.7163,-7.7181,-7.6959,-7.6957,-7.6955,0,-7.6447,-7.6547,-7.6636,-7.6661,-7.6714,-7.6755,-7.6778,-7.6817,-7.6854,-7.6902,-7.6926,-7.6981,-7.7011,-7.7054,-7.7058,-7.7017,-7.716,-7.7103,-7.7166,-7.7166,-7.7197,-7.7195,-7.7377,-7.7217,-7.7216,-7.7216,-7.7216,0,-7.6585,-7.6662,-7.6681,-7.6736,-7.6822,-7.6826,-7.691,-7.693,-7.6966,-7.7022,-7.7006,-7.706,-7.7063,-7.7117,-7.7121,-7.7204,-7.7217,-7.7224,-7.7224,-7.7226,-7.7225,-7.7245,-7.7237,-7.7221,-7.722,-7.7219,-7.7218,0,-7.6709,-7.6725,-7.682,-7.6864,-7.6877,-7.6939,-7.6975,-7.7027,-7.7041,-7.7113,-7.713,-7.715,-7.7214,-7.7223,-7.7296,-7.7299,-7.7399,-7.739,-7.7386,-7.7385,-7.7447,-7.7442,-7.7649,-7.7677,-7.7498,-7.75,-7.7501,0,-7.6796,-7.6856,-7.6907,-7.6946,-7.6973,-7.7034,-7.7073,-7.7078,-7.7118,-7.7172,-7.7217,-7.7279,-7.733,-7.7432,-7.7452,-7.7508,-7.7501,-7.757,-7.7509,-7.7509,-7.7502,-7.7499,-7.7505,-7.7581,-7.7583,-7.7585,-7.7586,0,-7.6948,-7.6954,-7.7011,-7.7072,-7.7119,-7.7166,-7.721,-7.7242,-7.7254,-7.7299,-7.7366,-7.7405,-7.7482,-7.7544,-7.7601,-7.7623,-7.7606,-7.7605,-7.7623,-7.7625,-7.7621,-7.7624,-7.7418,-7.76,-7.7599,-7.7598,-7.7597,-7.7596,-7.7057,-7.711,-7.7155,-7.722,-7.7255,-7.7297,-7.7349,-7.737,-7.7427,-7.7492,-7.7491,-7.7564,-7.7605,-7.768,-7.7706,-7.7762,-7.7739,-7.7765,-7.7771,-7.7777,-7.7784,-7.7612,-7.7772,-7.7772,-7.7771,-7.7771,-7.7771,0,-7.7209,-7.7238,-7.7298,-7.7362,-7.7413,-7.7397,-7.7445,-7.7488,-7.7554,-7.7595,-7.7646,-7.7723,-7.7784,-7.781,-7.7869,-7.7909,-7.7903,-7.7925,-7.7922,-7.7927,-7.7801,-7.778,-7.7929,-7.7929,-7.7929,-7.7929,-7.7929,-7.7929,-7.7294,-7.7384,-7.7395,-7.7502,-7.7529,-7.7604,-7.7633,-7.7672,-7.7705,-7.7793,-7.7845,-7.7862,-7.7897,-7.796,-7.8015,-7.8021,-7.8043,-7.8068,-7.8071,-7.7952,-7.7936,-7.7921,-7.7901,-7.8073,-7.8073,-7.8193,-7.8194,-7.8195]}]]